GFSFLT2_prec_cthk_252.txt.gz
RH
21 20 19 16 14 14 14 14 14 15 15 16 18 19 19 18 17 17 17 16 15 15 15 17 21 22 22 22 26 27 26 26
22 23 21 19 16 14 14 14 14 15 16 17 17 18 21 21 20 20 20 20 18 17 18 20 24 24 25 25 26 27 28 28
22 25 24 22 19 17 16 15 14 14 15 16 17 18 19 22 22 22 22 22 23 21 21 21 26 27 28 28 29 30 31 31
27 24 25 24 22 21 19 17 15 14 14 15 16 17 18 20 22 23 23 23 25 25 24 25 29 30 32 32 33 33 33 36
33 26 26 26 23 23 22 20 18 15 14 15 16 16 17 18 19 21 23 23 23 25 26 25 28 30 31 32 34 34 34 33
28 29 26 26 26 24 24 23 22 19 16 14 15 15 16 17 18 18 20 22 23 23 23 24 24 24 25 26 27 31 30 30
23 24 25 26 26 27 25 25 23 23 20 16 15 15 16 17 17 18 18 19 20 21 22 22 22 22 22 22 22 23 23 24
21 21 22 25 25 26 26 25 25 24 24 20 16 15 15 16 17 17 18 18 19 20 21 21 22 22 22 22 22 22 24 24
30 31 30 25 25 24 27 26 25 25 26 24 22 17 15 16 16 17 18 18 19 20 20 21 22 23 23 23 24 24 26 27
29 30 31 35 27 25 27 28 28 28 27 26 25 23 18 16 16 17 18 18 19 19 20 21 21 22 23 24 24 24 25 27
30 26 29 35 34 26 27 30 31 30 29 28 27 26 24 19 17 17 18 18 19 19 19 20 20 21 22 22 23 23 24 26
35 32 30 35 35 29 25 26 27 28 29 30 31 30 27 25 22 19 19 19 19 19 19 21 21 22 21 22 22 23 25 27
37 38 36 34 33 30 26 24 26 27 30 33 36 35 32 27 27 26 23 20 20 21 21 21 22 23 25 26 27 29 31 32
41 39 40 39 38 38 32 28 26 29 30 33 34 35 32 33 32 30 30 28 24 22 23 24 24 27 29 32 32 33 33 34
32 40 40 37 38 45 50 45 34 29 27 29 32 38 38 39 37 33 33 32 31 28 27 27 29 31 33 35 36 36 36 38
27 24 22 24 34 37 44 50 52 42 37 35 37 40 38 41 43 44 39 37 34 33 34 34 36 36 39 38 39 39 40 40
24 20 18 17 20 24 26 32 34 45 58 51 44 37 39 40 42 46 44 42 44 41 39 41 43 44 45 46 47 48 49 48
27 22 17 17 19 22 23 22 22 24 25 43 52 48 46 42 43 50 46 46 47 50 49 51 53 53 56 55 53 56 57 59
31 26 20 20 20 23 24 23 22 21 24 24 42 50 59 65 52 50 53 51 50 53 56 58 58 59 61 61 67 68 74 74
33 31 29 30 28 27 29 32 32 32 33 35 35 39 52 57 69 71 62 58 57 55 58 61 63 65 60 60 73 71 87 80

GFSFLT2_prec_cthk_258.txt.gz
RH
19 15 14 12 12 11 12 13 14 15 16 17 19 18 17 15 14 14 13 12 12 13 13 13 13 13 15 16 19 21 27 27
20 19 16 14 13 11 12 13 14 15 16 16 17 18 19 18 17 16 15 14 14 14 14 16 15 15 19 20 21 23 29 30
20 22 19 18 15 13 13 14 14 15 16 17 17 17 18 19 20 19 18 17 16 16 16 18 17 17 20 23 25 28 30 34
22 22 23 20 20 17 14 14 15 16 17 17 17 21 18 18 20 21 22 21 20 20 20 22 24 25 24 26 28 30 32 38
28 24 26 25 24 20 21 20 20 18 18 18 23 22 20 20 19 21 23 24 24 24 24 25 28 32 33 33 33 32 34 34
31 32 29 31 30 22 26 25 24 25 22 18 23 19 18 21 23 22 23 24 28 25 26 26 30 30 33 33 31 31 31 31
32 36 35 33 32 31 27 27 27 28 28 21 23 21 18 21 23 24 25 25 26 29 30 27 26 25 27 27 28 28 28 27
34 34 36 33 33 32 29 28 28 28 28 25 21 20 20 21 21 21 23 24 24 25 26 27 26 27 25 24 25 26 26 25
34 35 36 34 33 34 31 31 29 28 29 25 25 23 20 19 22 19 20 22 23 23 23 23 25 25 26 25 22 22 22 23
41 39 39 36 31 33 34 33 30 30 29 26 25 26 25 20 21 18 18 18 19 22 23 23 23 23 24 24 24 24 23 22
45 44 37 35 30 32 32 32 31 33 32 30 25 25 27 28 24 19 17 17 18 20 22 22 23 23 23 23 24 24 24 24
51 53 42 37 33 32 33 34 32 33 34 33 28 26 28 29 29 26 21 20 19 20 21 22 22 24 23 23 23 23 24 24
49 53 54 46 37 32 33 32 33 33 34 36 33 29 29 32 29 29 29 29 26 22 23 22 25 22 25 24 24 25 21 23
51 55 55 47 43 38 37 35 32 33 33 35 33 33 31 28 30 31 32 32 31 30 30 30 30 31 29 29 30 30 31 30
48 62 60 52 50 51 49 45 42 39 35 33 34 33 32 31 32 34 34 32 38 33 30 31 38 37 34 36 37 39 39 43
49 55 61 62 63 61 58 50 41 41 48 41 36 33 32 33 36 38 39 40 36 40 36 35 39 43 43 38 38 41 43 42
45 54 53 56 58 57 57 51 49 51 57 61 42 36 33 34 35 36 39 43 47 46 46 39 43 47 46 48 46 47 47 46
39 51 59 57 53 55 51 52 59 62 60 61 72 59 50 41 39 39 40 42 43 46 48 50 45 48 53 53 52 52 53 57
42 46 52 65 62 51 50 50 54 53 58 60 63 69 70 60 55 54 51 47 43 43 46 50 52 51 52 55 54 57 55 59
41 37 45 54 62 59 55 51 53 49 45 45 51 53 59 69 68 66 64 67 65 61 51 46 48 52 54 55 57 65 68 67

GFSFLT2_prec_cthk_261.txt.gz
RH
15 13 12 13 15 17 18 19 19 19 20 21 18 17 15 14 13 13 12 12 13 13 13 13 12 10 11 13 16 21 25 30
18 16 14 12 13 14 15 16 17 17 19 19 19 19 17 16 15 14 13 12 12 13 13 13 12 13 14 17 19 22 28 33
21 20 17 16 13 13 15 16 16 17 18 18 19 19 20 19 18 16 15 14 13 13 14 14 13 15 17 18 20 23 34 36
27 26 24 22 22 15 15 16 16 17 17 18 19 24 20 21 20 19 18 17 16 16 16 17 16 17 19 22 24 33 30 41
29 28 28 25 25 21 22 20 19 17 18 19 22 23 24 25 23 21 21 20 20 20 21 23 23 28 31 27 30 37 36 37
34 30 28 30 29 24 24 24 22 20 22 22 23 25 25 24 26 23 22 24 25 24 26 25 32 34 39 39 38 39 38 40
40 33 31 31 35 28 27 28 26 25 25 24 23 24 24 24 28 25 25 27 28 30 30 30 32 33 34 34 34 33 33 34
48 38 34 35 36 34 29 28 30 30 31 29 25 24 24 23 25 25 27 29 27 28 29 33 31 32 31 31 31 31 31 29
52 45 40 37 36 34 34 33 32 31 32 31 30 30 25 24 24 25 27 29 28 28 29 29 32 29 28 31 28 28 28 28
60 52 42 40 38 36 36 38 34 34 32 32 32 31 30 28 25 24 24 24 26 27 25 26 26 29 31 31 30 28 26 26
65 56 48 43 44 43 36 37 36 37 36 36 31 31 28 32 31 26 24 23 23 23 24 24 26 24 26 27 27 27 27 27
64 61 54 51 48 47 43 40 41 37 37 37 37 32 30 30 34 32 29 25 23 22 22 23 23 26 27 26 26 27 27 27
56 66 62 59 55 49 43 40 37 36 37 39 40 36 34 29 34 34 34 34 30 26 23 23 24 24 24 26 25 26 24 25
45 60 64 64 62 57 49 42 40 39 39 40 39 36 37 34 33 34 34 36 36 35 33 32 32 31 30 28 30 29 33 32
39 53 64 64 65 68 65 51 42 44 44 42 41 37 38 39 40 34 35 35 37 36 35 33 34 33 34 35 37 35 36 40
30 48 60 67 69 69 71 64 50 42 41 43 42 40 40 42 42 40 36 38 38 38 38 36 36 39 40 37 37 42 45 47
37 39 56 64 72 72 73 72 62 57 53 50 46 44 44 45 45 44 43 39 40 42 43 42 39 39 41 45 44 43 42 47
45 39 48 67 72 75 77 81 76 73 72 80 78 77 72 58 48 47 45 45 43 45 46 48 47 47 48 49 49 52 53 51
46 39 47 68 79 72 76 78 77 74 75 69 70 72 67 75 75 55 47 45 45 46 46 46 46 46 47 49 51 53 57 58
47 47 41 61 77 77 76 82 80 77 76 72 70 66 65 64 69 75 65 62 60 57 55 51 49 47 44 42 45 49 53 55

GFSFLT2_prec_cthk_264.txt.gz
RH
14 13 12 14 17 20 22 22 22 21 19 20 18 16 15 15 14 12 12 13 13 14 13 13 11 9 9 11 17 23 27 30
19 16 15 14 17 19 21 22 22 21 20 20 19 17 16 15 15 13 12 12 13 13 13 13 11 10 12 14 20 27 31 28
26 19 17 16 16 17 19 21 21 20 19 20 18 18 18 16 15 14 14 13 13 14 13 13 12 12 14 17 20 26 30 36
33 22 20 18 16 15 17 18 19 19 19 19 18 18 18 18 17 16 16 15 14 14 14 13 12 13 16 18 20 25 29 37
37 26 24 21 22 15 16 18 18 18 18 18 17 18 18 20 19 18 18 18 17 16 16 15 15 15 20 23 25 29 31 37
43 29 27 27 27 20 18 17 18 18 17 16 17 20 21 21 20 19 20 20 20 20 20 21 21 22 29 36 34 36 38 41
52 38 30 27 35 27 21 22 21 18 16 16 17 20 23 22 23 21 18 20 21 21 22 23 25 28 34 38 39 36 34 34
59 48 35 29 33 34 28 26 24 24 23 20 18 19 24 24 25 24 21 22 23 22 24 25 26 26 29 31 32 31 30 28
59 56 47 33 32 40 36 31 28 27 27 27 24 23 25 24 23 24 23 23 24 24 26 27 27 27 27 27 26 25 25 26
58 61 56 45 34 39 39 38 35 32 31 31 30 29 29 28 24 24 24 26 27 26 26 26 26 27 26 26 25 25 25 24
39 62 64 59 46 39 42 39 39 39 34 33 32 32 30 31 31 28 25 25 26 26 26 25 24 24 24 26 26 25 24 24
29 43 63 65 66 47 45 44 43 41 39 36 34 32 31 32 33 32 31 28 25 24 24 24 23 24 23 23 25 24 24 23
37 42 51 70 69 64 49 47 43 43 42 41 39 34 32 31 32 33 34 31 29 26 23 23 23 23 24 24 23 24 22 22
26 49 54 58 78 73 60 54 53 46 43 43 42 40 35 34 33 33 35 34 34 34 33 30 29 29 28 30 29 26 25 24
33 32 50 53 63 82 74 66 65 59 50 45 43 42 40 36 36 36 36 35 35 35 36 36 34 33 34 33 36 34 34 34
46 35 50 53 58 68 77 78 71 68 62 51 46 44 41 38 37 38 39 40 39 39 37 36 36 36 35 35 35 36 40 41
54 50 42 57 54 61 71 80 78 75 75 69 57 48 43 41 41 39 39 40 42 42 42 40 38 37 38 40 38 37 40 43
56 53 57 57 60 59 67 83 88 79 78 81 74 62 50 44 44 44 41 41 43 45 44 44 42 42 41 41 44 45 45 46
54 58 63 75 67 76 63 72 95 88 84 83 85 80 71 64 58 55 52 52 50 48 50 48 45 45 44 45 45 47 50 52
50 48 55 71 68 68 75 77 86 92 88 84 89 93 87 85 79 74 72 70 68 60 60 50 45 46 47 48 46 44 44 47